SL-12 R/B(2), 29673

Orbit data source: Space-Track

SL-12 R/B(2), 29673 is space debris in MEO originally from a launch on Mon, 25 Dec 2006 UTC launched from the Tyuratam Missile And Space Complex (TTMTR). Debris objects in space refer to the collection of defunct objects orbiting the Earth. Examples of debris include non-operational satellites, rocket bodies, and fragments generated from explosions, collisions, or faulty payload assembly.

Loading next visibility...
Identifier
29673, 2006-062D
Orbit
MEO
Last TLE update
10 hours ago
Origin
Manufacturer
RKKE
Mission
Spacecraft
Bus & Motor
BLOK DM2, 11D58M
Mass
2,440 kg wet, 2,440 kg dry
Launch date (UTC)
2006-12-25 (19 years ago)
Launch vehicle
Unknown
Launch site
Tyuratam Missile And Space Complex (TTMTR)
Object type
Payload
Rocket body
Debris
Shape & HBR
Cyl, 6.3 m
Radar Cross Section
23.684 m², Large (>1 m²)

Expand to show TLE details & history

TLE from 10 hours ago
0 SL-12 R/B(2)
1 29673U 06062D   25183.46448337  .00000077  00000-0  00000-0 0  9993
2 29673  64.7026 205.2873 0027524 193.9583 348.7000  2.13404448144527
Epoch: 2025-07-02T11:08Z
TLE epoch observation values (Epoch: 2025-07-02T11:08:51.363Z)
Latitude
-2.35924°
Longitude
-61.5523°
Altitude
19,037.898 km
Speed
3.966 km/s
True Right ascension
01h 45m 37s
True Declination
-2° 21' 19"
Sunlit
Object was in daylight at epoch
Visualization orbit readout
Latitude
30.20639°
Longitude
-78.64073°
Altitude
19,060.515 km
Speed
3.963 km/s
Apparent Right ascension
00h 00m 52s
Apparent Declination
19° 05' 29"
Sunlit
Object is in daylight
Visualization observer readout
Local Sidereal Time
08:59:57
Azimuth
315.297° NNW
Elevation
-17.492°
Doppler factor
1
Orbital elements
Apogee altitude
19,175.547 km
Perigee altitude
19,035.265 km
Semi-major axis
25,483.543 km
Eccentricity
0.00275
Inclination
64.7026°
RAAN
205.2873°
Arg. of periapsis
193.9583°
True anomaly
Unknown
Mean anomaly
348.7°
Eccentric anomaly
Unknown
Mean motion
0.53352 °/min
Orbital period
674.76 mins
BSTAR
0
Loading maneuver chart data...
Loading SW <> Apogee altitude chart data...
Loading historical data...
Loading historical data...
Loading historical data...
Loading historical data...
Loading historical data...
Loading historical data...
Loading historical data...

SL-12 R/B(2) Visibility forecast

Observer location: undefined°, undefined°

Span
Click to sort rows by Start time (UTC) header in descending order
Start Az.
Max El. time (UTC)
Max El. Az.
Max El.
End time (UTC)
End Az.
359 mins2025-07-03 03:14:46.845Z210.567° SW2025-07-03 05:48:46.845Z314.546° NW42.152°2025-07-03 09:13:46.845Z98.376° ESE
|